Date,TemperatureHighF,TemperatureAvgF,TemperatureLowF,DewpointHighF,DewpointAvgF,DewpointLowF,HumidityHigh,HumidityAvg,HumidityLow,PressureMaxIn,PressureMinIn,WindSpeedMaxMPH,WindSpeedAvgMPH,GustSpeedMaxMPH,PrecipitationSumIn
2013-1-1,65.8,55.7,48.5,54.8,50.0,44.1,91,81,68,30.14,29.90,4,1,5,0.00
2013-1-2,63.3,55.3,47.3,58.4,51.7,44.5,97,88,79,30.14,29.84,3,1,8,0.01
2013-1-3,47.1,43.7,36.1,44.4,41.6,34.8,95,92,87,30.23,30.08,1,0,5,0.07
2013-1-4,54.7,40.3,29.7,40.5,32.9,28.8,98,78,40,30.31,30.19,3,1,6,0.01
2013-1-5,53.1,39.3,27.1,38.0,31.3,25.7,96,76,38,30.38,30.25,4,1,6,0.00
2013-1-6,53.9,47.7,40.5,46.8,43.1,37.8,95,85,65,30.26,30.06,2,0,4,0.02
2013-1-7,57.2,47.5,35.9,44.9,38.3,32.8,97,73,43,30.37,30.12,5,1,7,0.00
2013-1-8,65.8,52.6,41.1,54.2,45.3,34.8,94,77,63,30.37,30.29,4,1,7,0.00
2013-1-9,73.6,59.1,45.7,61.0,54.8,44.4,98,87,63,30.36,30.30,4,1,6,0.00
2013-1-10,55.0,54.2,53.6,54.2,53.2,52.5,98,96,95,30.38,30.36,0,0,1,0.00
2013-1-14,65.2,62.6,61.6,60.4,60.0,59.3,93,91,84,30.12,30.12,2,1,3,0.01
2013-1-15,76.0,65.1,57.1,65.0,61.5,55.8,99,89,67,30.14,30.00,4,1,5,0.01
2013-1-16,79.3,68.6,60.9,65.7,62.8,58.0,99,83,56,30.02,29.91,5,2,9,0.01
2013-1-17,76.5,63.2,44.3,66.9,58.0,40.5,97,84,61,29.99,29.69,10,3,15,0.17
2013-1-18,54.9,43.6,35.1,40.4,33.4,26.9,92,71,36,30.48,30.00,4,1,6,0.00
2013-1-19,59.5,44.4,32.3,45.7,36.8,29.1,95,76,50,30.46,30.19,3,0,5,0.00
2013-1-20,68.5,50.5,38.3,47.3,38.4,29.3,99,70,24,30.19,29.98,6,1,7,0.00
2013-1-21,67.1,50.5,34.1,48.5,36.6,31.3,96,64,27,30.05,29.89,5,1,10,0.00
2013-1-22,52.7,43.3,30.4,34.5,26.6,19.2,87,55,29,30.22,29.96,5,1,8,0.00
2013-1-23,46.1,36.0,27.5,35.3,20.5,8.2,93,58,22,30.35,30.11,5,1,7,0.00
2013-1-24,59.0,44.5,28.9,43.7,30.0,10.4,80,58,40,30.48,30.00,6,2,12,0.00
2013-1-25,40.2,33.5,24.9,32.8,20.5,7.8,76,59,44,30.47,30.12,3,1,5,0.00
2013-1-26,56.5,42.0,33.0,37.1,31.4,26.2,82,67,46,30.33,30.09,3,1,6,0.00
2013-1-27,49.8,38.5,29.2,35.4,30.5,24.7,88,74,50,30.51,30.33,5,1,8,0.00
2013-1-28,60.9,45.7,35.4,53.6,40.8,29.8,95,83,63,30.47,30.25,3,0,3,0.00
2013-1-29,74.8,57.3,41.7,63.1,53.3,40.6,100,88,64,30.25,30.09,5,1,7,0.00
2013-1-30,71.3,66.2,61.7,65.8,62.9,60.3,98,89,80,30.08,29.57,9,5,15,0.02
2013-1-31,68.1,50.7,42.7,65.1,35.0,23.7,94,58,29,30.10,29.56,10,5,15,0.32